Louisville, KY

7:31 PM EDT on September 25, 2017 (GMT -0400)
Louisville International-Standiford

Weather History for KSDF - March, 2013

Change the Weather History Date:

Tuesday, March 26, 2013

  Actual Average Record
Temperature  
Mean Temperature 38 °F 51 °F  
Max Temperature 43 °F 62 °F 84 °F (1907)
Min Temperature 33 °F 41 °F 12 °F (1955)
Degree Days  
Heating Degree Days 27 14  
Month to date heating degree days 642 472  
Since 1 July heating degree days 3724 3713  
Cooling Degree Days 0 0  
Month to date cooling degree days 0 0  
Year to date cooling degree days 0 0  
Moisture  
Dew Point 29 °F    
Average Humidity 69    
Maximum Humidity 89    
Minimum Humidity 49    
Precipitation  
Precipitation 0.01 in 0.15 in 1.91 in (1948)
Month to date precipitation 4.20 3.47  
Year to date precipitation 11.22 9.89  
Snow  
Snow 0.30 in 0.00 in 0.90 in (1969)
Month to date snowfall 1.7 1.3  
Since 1 July snowfall 9.8 12.3  
Snow Depth T in    
Sea Level Pressure  
Sea Level Pressure 30.16 in    
Wind  
Wind Speed 10 mph (WNW)    
Max Wind Speed 18 mph    
Max Gust Speed 23 mph    
Visibility 7 miles    
Events Snow    
T = Trace of Precipitation, MM = Missing Value Source: NWS Daily Summary

Daily Weather History Graph

Daily Weather History Graph

Search for Another Location

Airport or City:

Trip Planner

Search our weather history database for the weather conditions in past years. The results will help you decide how hot, cold, wet, or windy it might be!

Date:

Astronomy

Mar. 26, 2013 Rise Set
Actual Time 7:36 AM EDT 8:00 PM EDT
Civil Twilight 7:10 AM EDT 8:27 PM EDT
Nautical Twilight 6:39 AM EDT 8:58 PM EDT
Astronomical Twilight 6:07 AM EDT 9:30 PM EDT
Moon 7:36 PM EDT (3/26) 6:52 AM EDT (3/26)
Length of Visible Light 13h 16m
Length of Day
12h 23m
Waxing Gibbous, 99% of the Moon is Illuminated
Mar 26
Waxing Gibbous
Mar 27
Full
Apr 3
Last Quarter
Apr 10
New
Apr 18
First Quarter

Hourly Weather History & Observations

Time (EDT) Temp. Windchill Dew Point Humidity Pressure Visibility Wind Dir Wind Speed Gust Speed Precip Events Conditions
12:43 AM 33.8 °F 27.0 °F 30.2 °F 87% 30.03 in 2.5 mi WNW 8.1 mph - 0.00 in Snow Light Snow
12:50 AM 33.8 °F 25.8 °F 30.2 °F 87% 30.03 in 3.0 mi WNW 10.4 mph - 0.00 in Snow Light Snow
12:56 AM 33.1 °F 25.5 °F 30.9 °F 92% 30.04 in 3.0 mi WNW 9.2 mph - 0.00 in Snow Light Snow
1:09 AM 33.8 °F 27.0 °F 30.2 °F 87% 30.03 in 4.0 mi WNW 8.1 mph - 0.00 in Snow Light Snow
1:56 AM 34.0 °F 26.6 °F 30.9 °F 89% 30.05 in 7.0 mi WNW 9.2 mph - 0.00 in   Overcast
2:41 AM 33.8 °F 25.8 °F 30.2 °F 87% 30.05 in 8.0 mi WNW 10.4 mph - 0.00 in   Overcast
2:56 AM 34.0 °F 26.0 °F 30.0 °F 85% 30.06 in 10.0 mi WNW 10.4 mph - 0.00 in   Overcast
3:56 AM 34.0 °F 26.6 °F 30.0 °F 85% 30.07 in 8.0 mi NW 9.2 mph - N/A   Overcast
4:56 AM 34.0 °F 26.6 °F 30.0 °F 85% 30.07 in 9.0 mi WNW 9.2 mph - 0.00 in   Overcast
5:56 AM 34.0 °F 26.6 °F 28.9 °F 82% 30.09 in 6.0 mi WNW 9.2 mph - 0.00 in Snow Light Snow
6:07 AM 33.8 °F 27.7 °F 30.2 °F 87% 30.07 in 5.0 mi WNW 6.9 mph - 0.00 in Snow Light Snow
6:27 AM 33.8 °F 27.0 °F 30.2 °F 87% 30.08 in 2.5 mi WNW 8.1 mph - 0.00 in Snow Light Snow
6:38 AM 33.8 °F 26.4 °F 30.2 °F 87% 30.08 in 3.0 mi WNW 9.2 mph - 0.00 in Snow Light Snow
6:56 AM 34.0 °F 26.6 °F 30.0 °F 85% 30.10 in 9.0 mi WNW 9.2 mph - 0.00 in   Overcast
7:38 AM 33.8 °F 26.4 °F 28.4 °F 81% 30.10 in 9.0 mi WNW 9.2 mph - N/A   Overcast
7:46 AM 33.8 °F 26.4 °F 28.4 °F 81% 30.10 in 8.0 mi NW 9.2 mph - 0.00 in Snow Light Snow
7:56 AM 34.0 °F 26.0 °F 28.9 °F 82% 30.12 in 5.0 mi WNW 10.4 mph - 0.00 in Snow Light Snow
8:56 AM 34.0 °F 26.6 °F 28.9 °F 82% 30.15 in 3.0 mi NW 9.2 mph - 0.00 in Snow Light Snow
9:00 AM 33.8 °F 26.4 °F 28.4 °F 81% 30.14 in 2.0 mi NW 9.2 mph - 0.00 in Snow Light Snow
9:22 AM 33.8 °F 27.0 °F 30.2 °F 87% 30.15 in 1.5 mi NW 8.1 mph - 0.00 in Snow Light Snow
9:51 AM 33.8 °F 25.3 °F 28.4 °F 81% 30.16 in 2.0 mi NW 11.5 mph - 0.00 in Snow Light Snow
9:56 AM 33.1 °F 25.5 °F 28.9 °F 85% 30.17 in 2.0 mi NW 9.2 mph - 0.00 in Snow Light Snow
9:58 AM 33.8 °F 27.0 °F 30.2 °F 87% 30.16 in 1.2 mi WNW 8.1 mph - 0.00 in Snow Light Snow
10:08 AM 33.8 °F 25.8 °F 30.2 °F 87% 30.16 in 2.0 mi NW 10.4 mph - 0.00 in Snow Light Snow
10:56 AM 34.0 °F 28.0 °F 30.9 °F 89% 30.19 in 2.5 mi WNW 6.9 mph - 0.01 in Snow Light Snow
11:05 AM 33.8 °F 28.6 °F 30.2 °F 87% 30.18 in 2.5 mi NW 5.8 mph - 0.00 in Snow Light Snow
11:09 AM 35.6 °F 29.9 °F 32.0 °F 87% 30.18 in 3.0 mi NW 6.9 mph - 0.00 in Snow Light Snow
11:25 AM 35.6 °F 29.2 °F 30.2 °F 81% 30.19 in 7.0 mi WNW 8.1 mph - 0.00 in Snow Light Snow
11:56 AM 39.0 °F 32.3 °F 30.9 °F 73% 30.20 in 9.0 mi NNW 10.4 mph - 0.00 in   Overcast
12:56 PM 42.1 °F 37.7 °F 32.0 °F 67% 30.20 in 10.0 mi Variable 6.9 mph - N/A   Mostly Cloudy
1:35 PM 39.2 °F 35.0 °F 28.4 °F 65% 30.19 in 10.0 mi NW 5.8 mph - N/A   Mostly Cloudy
1:56 PM 41.0 °F 34.3 °F 27.0 °F 57% 30.20 in 10.0 mi NW 11.5 mph - N/A   Mostly Cloudy
2:56 PM 39.9 °F 32.9 °F 26.1 °F 58% 30.21 in 10.0 mi NW 11.5 mph - N/A   Overcast
3:56 PM 42.1 °F 35.2 °F 25.0 °F 51% 30.21 in 10.0 mi WNW 12.7 mph - N/A   Overcast
4:56 PM 41.0 °F 34.7 °F 24.1 °F 51% 30.22 in 10.0 mi WNW 10.4 mph - N/A   Overcast
5:56 PM 41.0 °F 32.8 °F 24.1 °F 51% 30.22 in 10.0 mi West 16.1 mph - N/A   Overcast
6:56 PM 39.9 °F 33.4 °F 25.0 °F 55% 30.24 in 10.0 mi West 10.4 mph - N/A   Overcast
7:56 PM 39.0 °F 30.6 °F 25.0 °F 57% 30.26 in 10.0 mi WNW 15.0 mph - N/A   Overcast
8:56 PM 37.9 °F 31.5 °F 27.0 °F 65% 30.28 in 10.0 mi WNW 9.2 mph - N/A   Overcast
9:56 PM 37.0 °F 31.0 °F 27.0 °F 67% 30.30 in 10.0 mi West 8.1 mph - N/A   Overcast
10:56 PM 37.9 °F 33.5 °F 25.0 °F 60% 30.31 in 10.0 mi WNW 5.8 mph - N/A   Overcast
11:56 PM 37.0 °F 31.0 °F 26.1 °F 65% 30.31 in 10.0 mi WNW 8.1 mph - N/A   Overcast